YAOGAN-33 (47302 NORAD) Tracking and Keplerian Element Data

This shows tracking and keplerian element data for the satellite.

Feedback or suggestion? Click here.




ElementValue
Catalog47302
NameYAOGAN-33
Epoch Orbit935
Epoch Day60.74570187
Epoch Year2021
RAAN310.4364
Inclination98.2664
Eccentricity0.0001783
Argument of Perigee72.1196
Mean Anonmoly288.0202
Mean Motion14.59128554
Decay Rate1.01E-06
L11 47302U 20103A 21060.74570187 .00000101 00000-0 31411-4 0 9996
L22 47302 98.2664 310.4364 0001783 72.1196 288.0202 14.59128554 9352

Live tracking and technical data element details for YAOGAN-33 (NORAD 47302). YAOGAN-33 can be tracked NOW for your location showing map with azimuth and elevation plus other details from your city location.

Track the satellite on the map from your city or location and see movement details for azimuth, elevation, latitude, longitude, range, height, and movement on the map or in text.







IsCatalogInMostPopularTable: catalog: 47302, numindb: 23
Update: records affected: 1



GetName: 47302 YAOGAN-33

Hit Count: updated at: Tue, 02 Mar 2021 14:16:28 GMT